Flims, Switzerland 16 day weather forecast

Slopes altitude range 1100 m - 3000m

Number of lifts: 29 Pistes: 235km

In some cases the lift and piste totals shown are for the ski domain (e.g. Three Valleys) rather than individual resort (e.g. Courchevel)

Overview

The 16 day weather forecast is fully updated 4 times every day.

    • Mon 22 APR 2019
    • Mon 22
    • 7C 16C
    • Tue 23 APR 2019
    • Tue 23
    • 8C 15C
    • Wed 24 APR 2019
    • Wed 24
    • 9C 15C
    • Thu 25 APR 2019
    • Thu 25
    • 8C 15C
    • Fri 26 APR 2019
    • Fri 26
    • 2C 7C
    • Sat 27 APR 2019
    • Sat 27
    • 2C 10C
    • Sun 28 APR 2019
    • Sun 28
    • 6C 15C
    • Mon 29 APR 2019
    • Mon 29
    • 9C 17C
    • Tue 30 APR 2019
    • Tue 30
    • -3C 0C
    • Wed 01 MAY 2019
    • Wed 01
    • -3C 2C
    • Thu 02 MAY 2019
    • Thu 02
    • -4C 3C
    • Fri 03 MAY 2019
    • Fri 03
    • -2C 9C
    • Sat 04 MAY 2019
    • Sat 04
    • 2C 12C
    • Sun 05 MAY 2019
    • Sun 05
    • 5C 12C
    • Mon 06 MAY 2019
    • Mon 06
    • 1C 4C
    • Tue 07 MAY 2019
    • Tue 07
    • -4C 0C

Date:

Time Type 0°C level Temp Chill Snow Cloud Speed Gust Dir Press
3:00 3114m 5°C 5_8 0cm 75% 8mph 15mph 1015mB
6:00 3123m 5°C 5_9 0cm 65% 9mph 17mph 1014mB
9:00 3117m 7°C 7_9 0cm 40% 9mph 13mph 1010mB
12:00 3089m 16°C 16_9 0cm 40% 9mph 12mph 1008mB
15:00 3132m 16°C 16_9 0cm 99% 9mph 14mph 1005mB
18:00 3107m 16°C 16_9 0cm 88% 9mph 17mph 1005mB
21:00 3196m 7°C 7_10 0cm 65% 10mph 18mph 1005mB
0:00 3172m 6°C 6_10 0cm 80% 10mph 19mph 1005mB
3:00 2944m 6°C 6_9 0cm 99% 9mph 17mph 1003mB
6:00 2752m 6°C 6_8 0cm 99% 8mph 15mph 1002mB
9:00 2634m 8°C 8_8 0cm 80% 8mph 11mph 1000mB
12:00 2626m 15°C 15_9 0cm 76% 9mph 11mph 1000mB
15:00 2664m 16°C 16_9 0cm 85% 9mph 11mph 1000mB
18:00 2751m 16°C 16_8 0cm 92% 8mph 15mph 1001mB
21:00 2859m 8°C 8_9 0cm 97% 9mph 18mph 1004mB
0:00 2851m 7°C 7_9 0cm 96% 9mph 19mph 1005mB
3:00 2776m 7°C 7_9 0cm 46% 9mph 18mph 1006mB
6:00 2713m 7°C 7_10 0cm 59% 10mph 19mph 1007mB
9:00 2748m 9°C 9_14 0cm 88% 14mph 22mph 1007mB
12:00 2719m 15°C 15_15 0cm 89% 15mph 24mph 1007mB
15:00 2972m 16°C 16_14 0cm 90% 14mph 21mph 1007mB
18:00 2604m 16°C 16_6 0cm 79% 6mph 10mph 1011mB
21:00 2590m 6°C 6_7 0cm 62% 7mph 13mph 1015mB
0:00 2580m 6°C 6_10 0cm 50% 10mph 21mph 1016mB
3:00 3161m 6°C 6_12 0cm 66% 12mph 25mph 1015mB
6:00 2933m 6°C 6_13 0cm 49% 13mph 24mph 1015mB
9:00 2838m 8°C 8_16 0cm 57% 16mph 23mph 1015mB
12:00 2641m 15°C 15_15 0cm 55% 15mph 25mph 1014mB
15:00 2738m 15°C 15_13 0cm 94% 13mph 22mph 1013mB
18:00 2621m 15°C 15_9 0cm 95% 9mph 18mph 1014mB
21:00 2632m 8°C 8_9 0cm 98% 9mph 17mph 1015mB
0:00 2654m 7°C 7_7 0cm 61% 7mph 12mph 1015mB
3:00 2573m 6°C 6_5 0cm 50% 5mph 7mph 1015mB
6:00 2260m 4°C 4_4 0cm 39% 4mph 4mph 1016mB
9:00 1536m 3°C 3_8 5cm 100% 8mph 13mph 1018mB
12:00 1450m 7°C 7_5 5cm 100% 5mph 8mph 1019mB
15:00 1556m 3°C 3_3 1cm 100% 3mph 5mph 1020mB
18:00 1607m 3°C 3_2 1cm 100% 2mph 2mph 1022mB
21:00 1480m 1°C 1_1 1cm 100% 1mph 2mph 1025mB
0:00 1468m 1°C 1_2 1cm 100% 2mph 3mph 1026mB
3:00 1473m 1°C 1_3 2cm 99% 3mph 3mph 1027mB
6:00 1493m 0°C 0_2 1cm 82% 2mph 2mph 1028mB
9:00 1654m 2°C 2_0 0cm 33% 0mph 1mph 1027mB
12:00 1939m 10°C 10_2 0cm 22% 2mph 3mph 1025mB
15:00 2066m 10°C 10_2 0cm 29% 2mph 3mph 1025mB
18:00 2086m 10°C 10_1 0cm 45% 1mph 1mph 1026mB
21:00 2204m 2°C 2_4 0cm 24% 4mph 6mph 1028mB
0:00 2447m 1°C 1_5 0cm 33% 5mph 6mph 1028mB
3:00 2459m 1°C 1_5 0cm 59% 5mph 6mph 1027mB
6:00 2537m 1°C 1_5 0cm 61% 5mph 6mph 1026mB
9:00 2580m 6°C 6_1 0cm 47% 1mph 1mph 1024mB
12:00 2546m 15°C 15_2 0cm 36% 2mph 2mph 1022mB
15:00 2745m 15°C 15_3 0cm 13% 3mph 3mph 1021mB
18:00 2782m 15°C 15_2 0cm 13% 2mph 3mph 1021mB
21:00 2717m 5°C 5_3 0cm 20% 3mph 4mph 1023mB
0:00 2763m 5°C 5_4 0cm 27% 4mph 5mph 1021mB
3:00 2712m 5°C 5_5 0cm 49% 5mph 7mph 1019mB
6:00 2681m 5°C 5_5 0cm 58% 5mph 8mph 1017mB
9:00 2654m 9°C 9_3 0cm 68% 3mph 6mph 1014mB
12:00 2799m 17°C 17_5 0cm 58% 5mph 13mph 1010mB
15:00 2862m 11°C 11_6 0cm 97% 6mph 8mph 1008mB
18:00 2685m 11°C 11_5 0cm 96% 5mph 7mph 1008mB
21:00 2598m 3°C 3_3 0cm 93% 3mph 4mph 1009mB
0:00 2429m 2°C 2_5 0cm 95% 5mph 7mph 1008mB
3:00 2001m 1°C 1_8 6cm 100% 8mph 12mph 1007mB
6:00 1572m -2°C -2_9 5cm 100% 9mph 13mph 1008mB
9:00 1658m -3°C -3_8 2cm 97% 8mph 11mph 1008mB
12:00 1847m 0°C 0_7 1cm 89% 7mph 9mph 1008mB
15:00 1827m 1°C 1_8 1cm 62% 8mph 9mph 1008mB
18:00 1638m 1°C 1_6 1cm 81% 6mph 8mph 1010mB
21:00 1392m -3°C -3_4 1cm 90% 4mph 5mph 1014mB
0:00 1270m -4°C -4_2 1cm 84% 2mph 3mph 1015mB
3:00 1072m -5°C -5_1 0cm 52% 1mph 2mph 1016mB
6:00 1368m -6°C -6_1 0cm 51% 1mph 1mph 1015mB
9:00 1756m -3°C -3_5 0cm 40% 5mph 5mph 1013mB
12:00 1961m 2°C 2_7 1cm 51% 7mph 6mph 1012mB
15:00 1991m 2°C 2_8 1cm 64% 8mph 8mph 1011mB
18:00 1747m 2°C 2_5 2cm 56% 5mph 6mph 1012mB
21:00 1267m -4°C -4_1 0cm 15% 1mph 2mph 1015mB
0:00 1216m -5°C -5_4 0cm 25% 4mph 5mph 1014mB
Afternoon 0.192708mm 0.3125 1994m 3°C 3_8 2cm 86% 8mph 10mph 1009mB
Morning 0.114583mm 0.4375 1555m -2°C -2_7 0cm 26% 7mph 8mph 1013mB
Afternoon 0mm 0 2591m 9°C 9_8 0cm 48% 8mph 10mph 1008mB
Morning 0.00520833mm 0.0625 2407m 2°C 2_11 0cm 76% 11mph 21mph 1009mB
Afternoon 0mm 0 2866m 12°C 12_11 0cm 93% 11mph 15mph 1003mB
Morning 0.0885417mm 0 3094m 5°C 5_11 0cm 87% 11mph 21mph 1003mB
Afternoon 0.161458mm 1.625 3037m 12°C 12_9 0cm 69% 9mph 13mph 999mB
Morning 2.36458mm 3.75 2203m 2°C 2_6 0cm 100% 6mph 10mph 999mB
Afternoon 0.765625mm 0.0625 2251m 4°C 4_8 6cm 100% 8mph 11mph 1002mB
Morning 0.09375mm 0.625 1519m -2°C -2_7 5cm 95% 7mph 12mph 1011mB
Afternoon 0.1875mm 0.125 1765m 0°C 0_9 2cm 100% 9mph 11mph 1015mB
Morning 0.0416667mm 0.125 803m -7°C -7_0 1cm 60% 0mph 1mph 1022mB

16 day outlook at a glance

Forecast issued: 22/04/2019 08:50:02

Chat

Your comments and questions. In a resort? Let us know what it's like!


Characters left 250

For terms and conditions see Readers Comments on the Cookie and privacy policy page.